Location: Biberach+an+der+Riss
(48.0937°N, 9.7888°E)
Time: 03:16:56
(UTC+02:00)

ISS - Visible Passes

Search period start: 25 May 2017 00:00
Search period end: 04 June 2017 00:00
Orbit: 402 x 409 km, 51.6° (Epoch: 25 May)

Date Brightness Start Highest point End Pass type
(mag) Time Alt. Az. Time Alt. Az. Time Alt. Az.
25 May -2.6 01:06:04 10° WNW 01:09:15 43° N 01:12:26 10° ENE visible
25 May -3.4 02:42:48 10° WNW 02:46:04 62° NNE 02:49:19 10° E visible
25 May -3.1 04:19:27 10° W 04:22:27 33° SW 04:25:25 10° SSE visible
25 May -3.8 22:37:17 10° SW 22:40:31 59° SSE 22:43:47 10° ENE visible
26 May -2.8 00:13:54 10° W 00:17:07 48° N 00:20:20 10° ENE visible
26 May -2.9 01:50:44 10° WNW 01:53:58 49° N 01:57:10 10° E visible
26 May -3.8 03:27:18 10° WNW 03:30:30 53° SSW 03:33:42 10° SE visible
26 May -3.2 21:45:31 10° SW 21:48:35 36° SE 21:51:39 10° ENE visible
26 May -3.2 23:21:44 10° W 23:25:00 59° NNW 23:28:16 10° ENE visible
27 May -2.6 00:58:38 10° WNW 01:01:49 44° N 01:05:00 10° E visible
27 May -4.0 02:35:13 10° WNW 02:38:30 83° SSW 02:41:48 10° ESE visible
27 May -2.3 04:12:24 10° W 04:14:36 17° SW 04:16:47 10° S visible
27 May -3.7 22:29:36 10° WSW 22:32:54 80° NNW 22:36:12 10° ENE visible
28 May -2.6 00:06:29 10° WNW 00:09:39 42° N 00:12:49 10° ENE visible
28 May -3.6 01:43:08 10° WNW 01:46:27 70° NNE 01:47:25 41° E visible
28 May -1.3 03:19:54 10° W 03:19:57 10° W 03:19:57 10° W visible
28 May -2.7 23:14:17 10° W 23:17:29 45° N 23:20:41 10° ENE visible
29 May -3.1 00:51:04 10° WNW 00:54:19 53° NNE 00:56:00 25° E visible
29 May -1.7 02:27:39 10° WNW 02:28:36 17° W 02:28:36 17° W visible
29 May -3.0 22:22:03 10° W 22:25:19 54° NNW 22:28:34 10° ENE visible
29 May -2.7 23:58:57 10° WNW 00:02:09 45° N 00:05:06 12° E visible
30 May -2.9 01:35:30 10° WNW 01:37:42 38° W 01:37:42 38° W visible
30 May -2.6 23:06:46 10° WNW 23:09:56 42° N 23:13:07 10° ENE visible
31 May -3.8 00:43:23 10° WNW 00:46:42 79° NNE 00:47:00 69° E visible
31 May -2.6 22:14:33 10° W 22:17:43 44° N 22:20:55 10° ENE visible
31 May -3.3 23:51:17 10° WNW 23:54:33 58° NNE 23:56:23 23° E visible
01 Jun -1.7 01:27:53 10° WNW 01:29:01 18° W 01:29:01 18° W visible
01 Jun -2.9 22:59:08 10° WNW 23:02:22 47° N 23:05:34 10° E visible
02 Jun -3.5 00:35:41 10° WNW 00:38:28 52° WSW 00:38:28 52° WSW visible
02 Jun -2.6 22:06:56 10° WNW 22:10:07 43° N 22:13:18 10° ENE visible
02 Jun -3.9 23:43:31 10° WNW 23:46:50 89° NNE 23:47:56 39° ESE visible
03 Jun -1.0 01:20:34 10° W 01:20:35 10° W 01:20:35 10° W visible
03 Jun -3.5 22:51:22 10° WNW 22:54:40 65° NNE 22:57:28 13° E visible
